FALCON
1 30776U 07006E 13302.51493573 .00011457 00000-0 65686-3 0 7251
2 30776 035.4294 097.0608 0001270 006.2119 042.4116 15.11874306365751
MAST
1 31126U 07012K 13302.49692854 .00001728 00000-0 39128-3 0 8880
2 31126 097.8920 290.8379 0092553 354.7743 128.8827 14.54735011346847
CAPE1
1 31130U 07012P 13301.93251982 .00002504 00000-0 56954-3 0 8896
2 31130 097.9108 286.7274 0100347 013.0422 347.3335 14.53696311346209
COMPASS
1 32787U 08021E 13302.15669399 .00005655 00000-0 65115-3 0 7669
2 32787 097.7373 357.1722 0013798 218.4280 141.5954 14.86041635297853
AAUSAT2
1 32788U 08021F 13302.66014568 .00005151 00000-0 58631-3 0 7507
2 32788 097.7383 358.4048 0013321 215.9755 144.0565 14.86562517297977
DO-64
1 32789U 08021G 13302.51388804 .00009509 00000-0 99892-3 0 7841
2 32789 097.7546 002.8805 0013025 207.1360 262.1050 14.89613635298115
CO-66
1 32791U 08021J 13302.14549877 .00004526 00000-0 53477-3 0 7418
2 32791 097.7372 356.3391 0014271 220.6016 191.7233 14.85074948297757
RS-30
1 32953U 08025A 13302.63552686 .00000010 00000-0 00000 0 0 3340
2 32953 082.5036 344.5861 0017496 301.1792 058.7573 12.43038408246616
METEOR-M
1 35865U 09049A 13302.70046679 .00000006 00000-0 22116-4 0 9371
2 35865 098.5861 351.7067 0003318 051.8566 308.2905 14.21895731213588
RS-38
1 35869U 09049E 13302.71015867 .00000069 00000-0 50494-4 0 8920
2 35869 098.5802 351.5903 0005393 049.4678 310.6969 14.22151775213611
JUGNU
1 37839U 11058B 13302.14470865 .00000573 00000-0 16482-3 0 4915
2 37839 019.9605 215.0922 0018997 319.2235 185.6821 14.12194384105859
SRMSAT
1 37841U 11058D 13302.17363595 .00000510 00000-0 13688-3 0 4907
2 37841 019.9713 229.6267 0011758 267.8842 231.8322 14.10258125105712
RAX-2
1 37853U 11061D 13301.98942308 .00014683 00000-0 10736-2 0 6309
2 37853 101.6980 217.6428 0231365 003.5863 056.7998 14.84813618108296
AUBIESAT
1 37854U 11061E 13302.35841718 .00017062 00000-0 12171-2 0 6180
2 37854 101.7018 219.3453 0230815 000.7439 111.0596 14.85678118108377
HRBE
1 37855U 11061F 13302.45338398 .00016780 00000-0 12058-2 0 6255
2 37855 101.7021 219.1366 0231978 001.1657 059.3506 14.85266611108377
RS-39
1 38051U 11062C 13302.74021499 .00027463 00000-0 76066-3 0 9206
2 38051 051.6347 279.3425 0011742 038.4586 019.5828 15.36698867 98443
E-STAR
1 38079U 12006C 13302.83030611 .00106195 49468-5 18660-2 0 5646
2 38079 069.4707 216.3261 0553758 316.8631 148.1169 14.62107754 89301
GOLIAT
1 38085U 12006J 13302.76717047 .00092409 44929-5 16605-2 0 5028
2 38085 069.4727 219.8738 0565211 318.6737 037.2748 14.59264770 89209
HORYU-2
1 38340U 12025D 13301.82452802 .00001957 00000-0 32498-3 0 6490
2 38340 098.2325 250.7617 0011769 183.2262 176.8877 14.71288140 77762
RS-40
1 38736U 12041D 13302.34361306 .00000010 00000-0 00000 0 0 4096
2 38736 082.4773 071.4734 0021671 035.7221 324.5315 12.42872377 56910
PROITERES
1 38756U 12047B 13302.76743545 .00000916 00000-0 14599-3 0 2511
2 38756 098.2433 022.2224 0013617 041.9365 318.2886 14.74394202 61223
RAIKO
1 38852U 98067CN 13218.07382584 .24681979 12625-4 36599-3 0 3409
2 38852 051.6160 184.0336 0004489 261.9162 100.6538 16.48474690 47849
BEESAT-3
1 39134U 13015E 13302.88319711 .00005009 00000-0 39979-3 0 4064
2 39134 064.8765 145.2643 0003307 311.8843 048.1984 15.01349440 29044
BEESAT-2
1 39136U 13015G 13302.82344594 .00004430 00000-0 35632-3 0 3964
2 39136 064.8764 145.5040 0003237 311.2458 048.8380 15.01210529 29038
